Regional Weather Roundup
Issued by NWS Upton, NY

Current Version | Previous Version | Graphics & Text | Print | Product List | Glossary Off
Versions: 1 2 3 4 5 6 7 8 9 10 11 12 13 14 15 16 17 18 19 20 21 22 23 24 25 26 27 28 29 30 31 32 33 34 35 36 37 38 39 40 41 42 43 44 45 46 47 48 49 50

000
ASUS41 KOKX 240208
RWROKX

REGIONAL WEATHER ROUNDUP
NATIONAL WEATHER SERVICE NEW YORK NY
900 PM EST THU NOV 23 2017

NOTE: "FAIR" INDICATES FEW OR NO CLOUDS BELOW 12,000 FEET WITH NO
SIGNIFICANT WEATHER AND/OR OBSTRUCTIONS TO VISIBILITY.

NYZ071-072-176-178-NJZ106-104-240300-
NEW YORK CITY METRO AREA

CITY           SKY/WX    TMP DP  RH WIND       PRES   REMARKS
Central Park   CLEAR     39  21  48 VRB3      30.04R
Bronx Bot Gard   N/A     39  21  48 SW6       30.03R WCI  35
Bronx Lehman C   N/A     39  32  75 W5          N/A
LaGuardia APRT PTCLDY    42  22  44 W7        30.02R
Queens College   N/A     39  32  75 W7          N/A  WCI  34
Kennedy INTL   PTCLDY    38  23  55 W9        30.04R WCI  31
Breezy Point     N/A     39 N/A N/A W9G15       N/A  WCI  33
Brooklyn Coll    N/A     39  32  75 W6          N/A  WCI  35
Staten Island    N/A     36  32  87 W3          N/A
Newark/Liberty PTCLDY    37  21  52 W8        30.03R WCI  31
Teterboro      CLEAR     36  21  54 W6        30.02R WCI  31
$$

NYZ177-179-078>081-240300-
LONG ISLAND NEW YORK

CITY           SKY/WX    TMP DP  RH WIND       PRES   REMARKS
Jones Beach      N/A     39 N/A N/A W9          N/A  WCI  33
Wantagh          N/A     37  32  81 W3          N/A
Matinecock PT    N/A     41 N/A N/A W13         N/A
Farmingdale    PTCLDY    33  24  69 CALM      30.02R
MacArthur/ISP  PTCLDY    31  23  72 CALM      30.01R
Shirley        PTCLDY    30  24  78 CALM      30.02S
Mt Sinai Harb    N/A    N/A N/A N/A SW3         N/A
Westhampton    PTCLDY    26  21  81 CALM      30.03R
East Hampton   FAIR      32  22  67 W3        30.01R
Southold         N/A     34  32  93 SW3         N/A
Montauk          N/A     41  29  62 W6        30.01R
$$

NYZ052-065-067-240300-
HUDSON VALLEY

CITY           SKY/WX    TMP DP  RH WIND       PRES   REMARKS
White Plains   CLEAR     34  23  64 NW9       29.99S WCI  27
Larchmont Harb   N/A     37 N/A N/A W5          N/A  WCI  34
Croton On Huds   N/A     37 N/A N/A NW3         N/A
Somers           N/A     32  32 100 NW1         N/A
Brewster         N/A     30  32 100 N1          N/A
Newburgh       CLEAR     32  25  74 W7        30.02S WCI  26
Montgomery     CLOUDY    30  23  75 SW3       30.00S
Suffern          N/A     34  32  93 W5          N/A  WCI  30
Poughkeepsie   CLOUDY    29  22  75 CALM      30.01S
Albany         CLOUDY    33  22  63 S5        30.00S WCI  29
$$

NJZ001-105-106-008-010-013-015-019>022-104-240300-
NEW JERSEY

CITY           SKY/WX    TMP DP  RH WIND       PRES   REMARKS
Newark/Liberty PTCLDY    37  21  52 W8        30.03R WCI  31
Teterboro      CLEAR     36  21  54 W6        30.02R WCI  31
Caldwell       CLEAR     31  23  72 CALM      30.03R
Somerville     CLEAR     26  22  84 CALM      30.02R
Linden         FAIR      35  20  53 CALM      30.04R
Perth Amboy      N/A     36 N/A N/A W7          N/A  WCI  30
Sussex         CLEAR     27  21  78 CALM      30.02S
Andover          N/A     28  23  81 CALM      30.02R
Trenton        CLEAR     34  19  54 W3        30.04R
Millville      CLEAR     26  24  92 CALM      30.07R
Atlantic City  CLEAR     28  22  78 CALM      30.06R
Wrightstown    CLEAR     28  22  78 SW5       30.03R WCI  23
Toms River     CLEAR     26  21  81 CALM      30.06R
Belmar         CLEAR     32  20  61 SW5       30.05R WCI  27
$$

PAZ047>061-062-071-240300-
EASTERN PENNSYLVANIA

CITY           SKY/WX    TMP DP  RH WIND       PRES   REMARKS
Philadelphia   CLEAR     38  20  48 W5        30.06R WCI  34
Allentown      CLEAR     28  18  66 SW5       30.02S WCI  23
Scranton       CLOUDY    31  22  69 CALM      30.01R
$$

CTZ002-004>006-009-010-012-RIZ004-006-007-MAZ004-011-015-240300-
SOUTHERN NEW ENGLAND
 IN CT

CITY           SKY/WX    TMP DP  RH WIND       PRES   REMARKS
Bradley INTL   MOCLDY    29  19  66 CALM      30.00F
Hartford       CLEAR     30  25  81 CALM      30.01F
Danbury        CLEAR     29  21  72 CALM      30.01S
Wtrbury/Oxford CLEAR     28  20  71 CALM      29.99S
Norwalk Harbor   N/A     36 N/A N/A NW3         N/A
Bridgeport     CLEAR     36  22  56 CALM      30.01S
Meriden        CLEAR     29  22  75 CALM      30.01S
New Haven      CLEAR     36  21  54 CALM      30.01R
Chester        FAIR      32  21  64 CALM      29.99S
Groton         MOCLDY    31  25  78 NW3       30.00S
Wilimantic     PTCLDY    30  24  78 CALM      30.00F

 IN RI

CITY           SKY/WX    TMP DP  RH WIND       PRES   REMARKS
Providence     MOCLDY    34  25  69 W5        30.00R WCI  30
Block Island   PTCLDY    40  23  50 NW6       30.00R
Westerly       PTCLDY    31  28  89 CALM      30.00S
 IN MA

CITY           SKY/WX    TMP DP  RH WIND       PRES   REMARKS
Boston         PTCLDY    37  17  44 W7        29.98S WCI  32
Worcester      CLEAR     29  15  56 W7        29.94F WCI  22
Westfield      CLOUDY    28  22  78 CALM      30.00S
Provincetown   PTCLDY    40  21  46 W8        29.97F WCI  34
Nantucket      CLEAR     35  28  75 NW7       29.98S WCI  29
$$

ANZ330-335-338-340-345-350-353-355-240300-
COASTAL MARINE OBSERVATIONS


STATION/POSITION TIME  SKY/WX   TEMP    WIND        PRES    VSBY  WAVE
                                AIR SEA DIR/SP/G                  HT/PER
                 (UTC)          (F)     (DEG/KT/KT) (MB)    (MI)  (FT/S)
NY HARB ENTRANCE 0050            42 55  270/ 12/ 14 1016.0          3/10
20 S FIRE ISLAND 0050            43 56  270/ 10/ 12 1016.6          3/11
GREAT SOUTH BAY  0130            41 46  280/  6/  6   N/A
HUDSON CANYON    0050            42 58  300/ 10/ 14 1016.8          4/10
KINGS POINT      0148            41 49  320/  7/  9 1017.2
EXECUTION ROCKS  0130            42     270/  8/ 10   N/A
WESTERN LI SOUND 0049            42     290/ 12/ 14   N/A           0
CENTRAL LI SOUND NOT AVBL
ROBBINS REEF     0136            39     250/ 10/ 11 1017.1
$$


>>>>>>>>>>>>>>>>>>>>>>>>>>>> KEY <<<<<<<<<<<<<<<<<<<<<<<<<<<
>                                                          <
>     SKY/WX - Sky Condition/Present Weather               <
>     TMP    - Temperature in Fahrenheit                   <
>     DP     - Dew Point in Fahrenheit                     <
>     RH     - Relative Humidity in Percent                <
>     WIND   - Direction (from) and Speed in MPH           <
>     PRES   - Mean Sea Level Pressure (inches of Hg)      <
>     WCI    - Wind Chill Index                            <
>     VSB    - VISIBILITY IN MILES                         <
>     HX     - HEAT INDEX                                  <
>     TC     - TEMPERATURE IN CELSIUS                      <
>     VRB    - VARIABLE WIND DIRECTION                     <
>                                                          <
>>>>>>>>>>>>>>>>>>>>>>>>>>>> KEY <<<<<<<<<<<<<<<<<<<<<<<<<<<



USA.gov is the U.S. government's official web portal to all federal, state and local government web resources and services.